FW6650 Weather Reports


Display with metric or nautical units.
time (UTC)temp
F
wind
direction
speed
MPH
gust
MPH
rain 1hr
in
rain 24hr
in
rain mn
in
humidity
%
barometer
mb
20260906224543 82 33 2.0 6.0 0.00 0.00 0.00 40 1018.2
20260906223526 82 0 0.0 3.0 0.00 0.00 0.00 41 1018.2
20260906223046 82 0 1.0 3.0 0.00 0.00 0.00 41 1018.2
20260906222526 81 0 0.0 5.0 0.00 0.00 0.00 42 1018.3
20260906222026 81 123 0.0 5.0 0.00 0.00 0.00 42 1018.2
20260906221549 81 148 2.0 4.0 0.00 0.00 0.00 41 1018.3
20260906221028 81 0 0.0 0.0 0.00 0.00 0.00 42 1018.2
20260906220117 81 0 0.0 1.0 0.00 0.00 0.00 41 1018.2
20260906214544 81 229 0.0 2.0 0.00 0.00 0.00 40 1018.2
20260906214026 82 232 0.0 2.0 0.00 0.00 0.00 41 1018.3
20260906213526 82 0 0.0 2.0 0.00 0.00 0.00 40 1018.1
20260906213049 82 360 0.0 2.0 0.00 0.00 0.00 41 1018.1
20260906212523 82 0 0.0 2.0 0.00 0.00 0.00 41 1018.2
20260906212025 82 360 0.0 3.0 0.00 0.00 0.00 41 1018.1
20260906211544 82 0 0.0 3.0 0.00 0.00 0.00 41 1018.1
20260906211024 82 57 0.0 1.0 0.00 0.00 0.00 40 1018.1
20260906210533 83 0 0.0 2.0 0.00 0.00 0.00 39 1018.1
20260906210055 83 0 0.0 4.0 0.00 0.00 0.00 38 1018.1
20260906205525 83 0 0.0 4.0 0.00 0.00 0.00 39 1018.1
20260906205026 83 56 0.0 3.0 0.00 0.00 0.00 39 1018.1
20260906204544 83 0 0.0 3.0 0.00 0.00 0.00 39 1018.1
20260906204027 83 360 1.0 3.0 0.00 0.00 0.00 39 1018.2
20260906203527 83 0 0.0 1.0 0.00 0.00 0.00 39 1018.2
20260906203043 84 0 0.0 4.0 0.00 0.00 0.00 38 1018.1
20260906202526 84 0 0.0 4.0 0.00 0.00 0.00 39 1018.1
20260906202026 84 360 2.0 4.0 0.00 0.00 0.00 38 1018.2
20260906201541 84 0 0.0 5.0 0.00 0.00 0.00 39 1018.1
20260906201026 84 355 3.0 5.0 0.00 0.00 0.00 39 1018.1
20260906200531 85 80 0.0 6.0 0.00 0.00 0.00 36 1018.1
20260906200053 85 80 2.0 7.0 0.00 0.00 0.00 35 1018.1
20260906195524 86 82 2.0 7.0 0.00 0.00 0.00 33 1018.1
20260906195027 86 119 4.0 8.0 0.00 0.00 0.00 34 1018.1
20260906194608 86 104 4.0 8.0 0.00 0.00 0.00 34 1018.0
20260906194024 86 108 2.0 5.0 0.00 0.00 0.00 34 1017.9
20260906193525 86 57 3.0 6.0 0.00 0.00 0.00 34 1018.0
20260906193039 86 108 3.0 7.0 0.00 0.00 0.00 35 1017.9
20260906192525 86 96 3.0 7.0 0.00 0.00 0.00 35 1018.0
20260906192025 86 117 4.0 7.0 0.00 0.00 0.00 34 1017.9
20260906191551 85 124 4.0 7.0 0.00 0.00 0.00 35 1017.9
20260906191027 85 110 2.0 4.0 0.00 0.00 0.00 35 1017.8
20260906190526 85 88 0.0 3.0 0.00 0.00 0.00 36 1017.8
20260906190049 85 0 0.0 4.0 0.00 0.00 0.00 37 1017.9
20260906185526 85 0 1.0 4.0 0.00 0.00 0.00 37 1017.8
20260906185028 85 0 0.0 5.0 0.00 0.00 0.00 38 1017.8
20260906184559 85 80 1.0 6.0 0.00 0.00 0.00 38 1017.7
20260906184023 85 101 2.0 6.0 0.00 0.00 0.00 38 1017.6
20260906183531 85 96 2.0 9.0 0.00 0.00 0.00 39 1017.6
20260906183046 85 80 1.0 9.0 0.00 0.00 0.00 40 1017.6
20260906182525 85 76 3.0 9.0 0.00 0.00 0.00 41 1017.6
20260906182029 85 65 1.0 9.0 0.00 0.00 0.00 41 1017.5
20260906181544 86 90 4.0 9.0 0.00 0.00 0.00 40 1017.4
20260906181025 86 93 3.0 9.0 0.00 0.00 0.00 40 1017.3
20260906180526 86 102 4.0 10.0 0.00 0.00 0.00 39 1017.3
20260906180045 86 98 3.0 10.0 0.00 0.00 0.00 38 1017.3
20260906175526 86 107 6.0 10.0 0.00 0.00 0.00 38 1017.1
20260906175029 86 79 3.0 7.0 0.00 0.00 0.00 39 1017.1
20260906174547 86 111 2.0 6.0 0.00 0.00 0.00 40 1017.0
20260906174023 86 113 2.0 6.0 0.00 0.00 0.00 40 1016.9
20260906173523 86 107 3.0 7.0 0.00 0.00 0.00 40 1016.8
20260906173045 87 102 2.0 7.0 0.00 0.00 0.00 40 1016.7
20260906172527 87 95 4.0 7.0 0.00 0.00 0.00 40 1016.6
20260906172027 87 98 3.0 7.0 0.00 0.00 0.00 40 1016.5
20260906171541 87 121 3.0 6.0 0.00 0.00 0.00 39 1016.4
20260906171027 87 105 3.0 7.0 0.00 0.00 0.00 40 1016.4
20260906170527 87 111 2.0 7.0 0.00 0.00 0.00 39 1016.3
20260906170051 87 117 4.0 7.0 0.00 0.00 0.00 40 1016.3
20260906165527 88 84 2.0 4.0 0.00 0.00 0.00 39 1016.3
20260906165029 88 117 2.0 4.0 0.00 0.00 0.00 39 1016.2
20260906164556 88 114 3.0 7.0 0.00 0.00 0.00 38 1016.2
20260906164027 88 113 2.0 7.0 0.00 0.00 0.00 39 1016.2
20260906163527 88 108 4.0 7.0 0.00 0.00 0.00 39 1016.2
20260906163051 89 121 3.0 7.0 0.00 0.00 0.00 38 1016.2
20260906162529 89 90 0.0 6.0 0.00 0.00 0.00 39 1016.1
20260906162028 88 86 2.0 7.0 0.00 0.00 0.00 40 1016.2
20260906161540 89 34 2.0 7.0 0.00 0.00 0.00 40 1016.2
20260906161027 89 90 1.0 7.0 0.00 0.00 0.00 39 1016.2
20260906160527 89 0 1.0 10.0 0.00 0.00 0.00 39 1016.2
20260906160052 89 111 3.0 10.0 0.00 0.00 0.00 39 1016.1
20260906155528 89 117 2.0 13.0 0.00 0.00 0.00 40 1016.0
20260906155027 88 156 4.0 13.0 0.00 0.00 0.00 41 1016.1
20260906154540 89 123 8.0 13.0 0.00 0.00 0.00 40 1016.1
20260906154029 90 129 6.0 13.0 0.00 0.00 0.00 39 1016.0
20260906153528 90 99 6.0 13.0 0.00 0.00 0.00 39 1016.0
20260906153046 91 134 7.0 14.0 0.00 0.00 0.00 38 1015.9
20260906152528 91 109 7.0 14.0 0.00 0.00 0.00 37 1015.9
20260906152027 91 126 9.0 14.0 0.00 0.00 0.00 37 1015.9
20260906151543 91 123 6.0 18.0 0.00 0.00 0.00 37 1015.8
20260906151028 91 172 9.0 18.0 0.00 0.00 0.00 35 1015.8
20260906150528 90 157 9.0 18.0 0.00 0.00 0.00 38 1015.8
20260906150057 91 141 8.0 17.0 0.00 0.00 0.00 38 1015.8
20260906145528 91 136 9.0 17.0 0.00 0.00 0.00 37 1015.9
20260906145028 91 133 9.0 15.0 0.00 0.00 0.00 37 1015.9
20260906144559 91 106 6.0 14.0 0.00 0.00 0.00 36 1015.9
20260906144027 92 86 6.0 14.0 0.00 0.00 0.00 36 1015.8
20260906143530 92 99 5.0 11.0 0.00 0.00 0.00 36 1015.8
20260906143044 92 0 4.0 15.0 0.00 0.00 0.00 37 1015.9
20260906142527 92 126 4.0 17.0 0.00 0.00 0.00 37 1015.8
20260906142029 92 98 8.0 17.0 0.00 0.00 0.00 37 1015.7
20260906141546 92 132 10.0 15.0 0.00 0.00 0.00 36 1015.8
20260906141031 94 124 3.0 14.0 0.00 0.00 0.00 35 1016.0
20260906140527 94 94 5.0 14.0 0.00 0.00 0.00 29 1015.8
20260906140042 94 331 3.0 10.0 0.00 0.00 0.00 29 1015.8
20260906135527 95 27 4.0 10.0 0.00 0.00 0.00 29 1015.9
20260906135026 94 15 4.0 9.0 0.00 0.00 0.00 29 1015.9
20260906134544 94 333 3.0 11.0 0.00 0.00 0.00 30 1015.9
20260906134027 94 38 4.0 11.0 0.00 0.00 0.00 30 1015.9
20260906133526 94 338 7.0 11.0 0.00 0.00 0.00 30 1015.9
20260906133045 94 32 4.0 12.0 0.00 0.00 0.00 29 1015.8
20260906132531 95 9 5.0 12.0 0.00 0.00 0.00 29 1016.0
20260906132031 94 360 2.0 11.0 0.00 0.00 0.00 30 1015.9
20260906131543 94 22 5.0 13.0 0.00 0.00 0.00 30 1015.9
20260906131027 94 36 7.0 13.0 0.00 0.00 0.00 29 1015.9
20260906130527 94 94 4.0 10.0 0.00 0.00 0.00 30 1016.1
20260906130048 94 20 5.0 11.0 0.00 0.00 0.00 31 1016.1
20260906125527 94 5 5.0 11.0 0.00 0.00 0.00 30 1016.1
20260906125027 94 100 4.0 11.0 0.00 0.00 0.00 33 1016.1
20260906124549 94 20 5.0 16.0 0.00 0.00 0.00 34 1016.2
20260906124028 93 98 5.0 16.0 0.00 0.00 0.00 34 1016.1
20260906123526 93 117 8.0 16.0 0.00 0.00 0.00 35 1016.1
20260906123045 94 88 4.0 13.0 0.00 0.00 0.00 33 1016.1
20260906122527 94 65 5.0 13.0 0.00 0.00 0.00 32 1016.1
20260906122026 94 83 4.0 11.0 0.00 0.00 0.00 33 1016.0
20260906121543 94 39 5.0 12.0 0.00 0.00 0.00 32 1016.1
20260906121027 94 32 4.0 13.0 0.00 0.00 0.00 31 1016.2
20260906120526 94 5 6.0 13.0 0.00 0.00 0.00 31 1016.2
20260906120050 94 115 5.0 13.0 0.00 0.00 0.00 32 1016.2
20260906115529 94 92 4.0 12.0 0.00 0.00 0.00 32 1016.3
20260906115028 94 77 6.0 14.0 0.00 0.00 0.00 32 1016.3
20260906114544 94 113 7.0 14.0 0.00 0.00 0.00 31 1016.3
20260906114027 93 101 5.0 12.0 0.00 0.00 0.00 32 1016.4
20260906113526 94 42 5.0 14.0 0.00 0.00 0.00 32 1016.4
20260906113043 93 19 7.0 14.0 0.00 0.00 0.00 32 1016.4
20260906112527 93 152 8.0 13.0 0.00 0.00 0.00 32 1016.3
20260906112027 93 72 7.0 15.0 0.00 0.00 0.00 31 1016.3
20260906111546 93 33 6.0 15.0 0.00 0.00 0.00 31 1016.3
20260906111027 93 70 8.0 15.0 0.00 0.00 0.00 31 1016.2
20260906110527 94 77 6.0 14.0 0.00 0.00 0.00 31 1016.1
20260906110046 94 132 7.0 14.0 0.00 0.00 0.00 30 1016.2
20260906105528 94 31 5.0 15.0 0.00 0.00 0.00 30 1016.2
20260906105027 94 85 3.0 15.0 0.00 0.00 0.00 30 1016.1
20260906104600 93 344 7.0 15.0 0.00 0.00 0.00 30 1016.1
20260906104028 93 246 2.0 9.0 0.00 0.00 0.00 31 1016.2
20260906103527 93 133 3.0 9.0 0.00 0.00 0.00 31 1016.3
20260906103044 94 115 3.0 12.0 0.00 0.00 0.00 30 1016.4
20260906102527 93 355 5.0 12.0 0.00 0.00 0.00 29 1016.4
20260906102023 93 324 7.0 12.0 0.00 0.00 0.00 29 1016.4
20260906101543 92 306 7.0 17.0 0.00 0.00 0.00 30 1016.4
20260906101027 92 355 7.0 17.0 0.00 0.00 0.00 29 1016.4
20260906100527 92 318 12.0 17.0 0.00 0.00 0.00 29 1016.5
20260906100048 92 303 8.0 14.0 0.00 0.00 0.00 29 1016.5
20260906095529 91 10 5.0 13.0 0.00 0.00 0.00 30 1016.4
20260906095027 91 338 4.0 11.0 0.00 0.00 0.00 29 1016.4
20260906094608 92 355 6.0 12.0 0.00 0.00 0.00 29 1016.5
20260906094026 91 355 5.0 12.0 0.00 0.00 0.00 30 1016.5
20260906093527 91 67 4.0 12.0 0.00 0.00 0.00 29 1016.5
20260906093041 91 360 3.0 12.0 0.00 0.00 0.00 30 1016.7
20260906092527 92 34 4.0 14.0 0.00 0.00 0.00 29 1016.6
20260906092031 91 311 7.0 14.0 0.00 0.00 0.00 30 1016.6
20260906091548 91 48 6.0 12.0 0.00 0.00 0.00 30 1016.7
20260906091027 91 17 7.0 12.0 0.00 0.00 0.00 30 1016.6
20260906090530 90 11 6.0 13.0 0.00 0.00 0.00 30 1016.7
20260906090046 91 34 8.0 13.0 0.00 0.00 0.00 30 1016.7
20260906085526 91 338 6.0 13.0 0.00 0.00 0.00 31 1016.8
20260906085027 90 44 7.0 13.0 0.00 0.00 0.00 31 1016.8
20260906084544 90 31 5.0 13.0 0.00 0.00 0.00 31 1016.7
20260906084027 90 355 7.0 13.0 0.00 0.00 0.00 31 1016.8
20260906083528 90 336 6.0 13.0 0.00 0.00 0.00 31 1016.7
20260906083052 90 46 8.0 13.0 0.00 0.00 0.00 31 1016.7
20260906082527 90 82 6.0 14.0 0.00 0.00 0.00 31 1016.7
20260906082027 90 343 8.0 14.0 0.00 0.00 0.00 31 1016.7
20260906081553 89 47 5.0 11.0 0.00 0.00 0.00 32 1016.7
20260906081027 89 68 4.0 13.0 0.00 0.00 0.00 31 1016.7
20260906080528 89 350 5.0 13.0 0.00 0.00 0.00 32 1016.7
20260906080050 89 5 4.0 11.0 0.00 0.00 0.00 32 1016.8
20260906075527 88 355 6.0 11.0 0.00 0.00 0.00 32 1016.7
20260906075028 88 355 0.0 4.0 0.00 0.00 0.00 33 1016.8
20260906074556 87 314 2.0 4.0 0.00 0.00 0.00 33 1016.8
20260906074026 88 238 0.0 4.0 0.00 0.00 0.00 33 1016.7
20260906073526 87 0 1.0 7.0 0.00 0.00 0.00 34 1016.8
20260906073051 87 252 3.0 7.0 0.00 0.00 0.00 34 1016.7
20260906072526 86 0 0.0 5.0 0.00 0.00 0.00 34 1016.7
20260906072027 86 0 1.0 5.0 0.00 0.00 0.00 34 1016.7
20260906071544 85 196 1.0 5.0 0.00 0.00 0.00 35 1016.6
20260906071027 85 292 2.0 5.0 0.00 0.00 0.00 35 1016.6
20260906070533 85 273 1.0 5.0 0.00 0.00 0.00 36 1016.5
20260906070043 85 258 1.0 5.0 0.00 0.00 0.00 35 1016.5
20260906065526 85 240 0.0 6.0 0.00 0.00 0.00 36 1016.4
20260906065027 84 286 2.0 6.0 0.00 0.00 0.00 36 1016.4
20260906064546 84 256 0.0 3.0 0.00 0.00 0.00 36 1016.3
20260906064026 84 0 0.0 3.0 0.00 0.00 0.00 36 1016.2
20260906063526 84 0 0.0 5.0 0.00 0.00 0.00 37 1016.3
20260906063047 83 221 3.0 5.0 0.00 0.00 0.00 37 1016.1
20260906062526 83 261 1.0 4.0 0.00 0.00 0.00 37 1016.1
20260906062026 83 271 2.0 4.0 0.00 0.00 0.00 38 1016.1
20260906061544 83 259 1.0 4.0 0.00 0.00 0.00 38 1016.0
20260906061027 82 267 0.0 4.0 0.00 0.00 0.00 38 1015.9
20260906060526 82 267 1.0 4.0 0.00 0.00 0.00 38 1015.9
20260906060040 83 264 2.0 4.0 0.00 0.00 0.00 37 1015.9
20260906055526 83 249 1.0 4.0 0.00 0.00 0.00 38 1015.8
20260906055026 82 180 2.0 4.0 0.00 0.00 0.00 37 1015.8
20260906054545 82 0 1.0 3.0 0.00 0.00 0.00 40 1015.7
20260906054027 81 0 1.0 3.0 0.00 0.00 0.00 40 1015.7
20260906053527 81 120 1.0 4.0 0.00 0.00 0.00 40 1015.8
20260906053040 81 90 0.0 4.0 0.00 0.00 0.00 39 1015.7
20260906052526 80 0 1.0 4.0 0.00 0.00 0.00 39 1015.8
20260906052027 79 0 0.0 5.0 0.00 0.00 0.00 41 1015.9
20260906051540 79 0 1.0 5.0 0.00 0.00 0.00 40 1015.9
20260906051026 79 0 0.0 3.0 0.00 0.00 0.00 40 1015.8
20260906050526 79 0 1.0 4.0 0.00 0.00 0.00 41 1015.8
20260906050041 79 0 0.0 4.0 0.00 0.00 0.00 40 1015.8
20260906045529 78 119 1.0 4.0 0.00 0.00 0.00 41 1015.7
20260906045023 78 360 1.0 3.0 0.00 0.00 0.00 41 1015.7
20260906044546 78 0 0.0 3.0 0.00 0.00 0.00 42 1015.7
20260906044028 78 360 1.0 3.0 0.00 0.00 0.00 40 1015.6
20260906043527 78 360 1.0 4.0 0.00 0.00 0.00 41 1015.5
20260906043047 78 360 2.0 4.0 0.00 0.00 0.00 41 1015.5
20260906042527 78 111 1.0 4.0 0.00 0.00 0.00 41 1015.4
20260906042027 77 110 1.0 4.0 0.00 0.00 0.00 41 1015.4
20260906041541 76 115 1.0 3.0 0.00 0.00 0.00 42 1015.3
20260906041031 76 116 1.0 4.0 0.00 0.00 0.00 41 1015.2
20260906040528 76 116 1.0 4.0 0.00 0.00 0.00 41 1015.1
20260906040100 75 119 0.0 2.0 0.00 0.00 0.00 42 1015.1
20260906035525 75 0 1.0 3.0 0.00 0.00 0.00 42 1015.2
20260906035027 76 0 1.0 3.0 0.00 0.00 0.00 41 1015.2
20260906034553 75 0 0.0 0.0 0.00 0.00 0.00 43 1015.1
20260906034026 75 0 0.0 0.0 0.00 0.00 0.00 43 1015.1
20260906033526 75 0 0.0 0.0 0.00 0.00 0.00 42 1015.1
20260906033044 75 0 0.0 0.0 0.00 0.00 0.00 42 1015.1
20260906032526 75 0 0.0 3.0 0.00 0.00 0.00 41 1015.0
20260906032026 76 0 0.0 3.0 0.00 0.00 0.00 41 1015.0
20260906031549 76 117 0.0 3.0 0.00 0.00 0.00 40 1015.0
20260906031026 76 117 0.0 3.0 0.00 0.00 0.00 41 1015.1
20260906030526 74 0 0.0 0.0 0.00 0.00 0.00 43 1014.9
20260906030046 75 0 0.0 0.0 0.00 0.00 0.00 44 1014.9
20260906025525 74 0 0.0 0.0 0.00 0.00 0.00 44 1014.9
20260906025026 74 0 0.0 0.0 0.00 0.00 0.00 44 1014.9
20260906024543 74 0 0.0 0.0 0.00 0.00 0.00 44 1014.7
20260906024029 74 0 0.0 1.0 0.00 0.00 0.00 44 1014.6
20260906023527 75 0 0.0 4.0 0.00 0.00 0.00 43 1014.6
20260906023049 74 0 2.0 4.0 0.00 0.00 0.00 43 1014.7
20260906022526 74 81 2.0 3.0 0.00 0.00 0.00 43 1014.6
20260906022026 75 51 0.0 3.0 0.00 0.00 0.00 43 1014.7
20260906021602 74 0 0.0 0.0 0.00 0.00 0.00 43 1014.8
20260906021026 75 0 0.0 0.0 0.00 0.00 0.00 43 1014.8
20260906020526 75 0 0.0 0.0 0.00 0.00 0.00 41 1014.8
20260906020055 75 0 0.0 3.0 0.00 0.00 0.00 43 1014.8
20260906015527 76 0 0.0 4.0 0.00 0.00 0.00 41 1014.7
20260906015026 75 0 2.0 4.0 0.00 0.00 0.00 41 1014.8
20260906014552 74 12 3.0 4.0 0.00 0.00 0.00 44 1014.8
20260906014029 75 0 0.0 4.0 0.00 0.00 0.00 42 1014.8
20260906013525 76 0 1.0 4.0 0.00 0.00 0.00 41 1014.7
20260906013045 75 0 0.0 4.0 0.00 0.00 0.00 40 1014.9
20260906012526 75 169 2.0 4.0 0.00 0.00 0.00 42 1014.7
20260906012023 74 169 1.0 4.0 0.00 0.00 0.00 41 1014.9
20260906011542 74 170 2.0 4.0 0.00 0.00 0.00 42 1015.0
20260906011030 75 167 1.0 3.0 0.00 0.00 0.00 43 1014.9
20260906010526 75 165 0.0 4.0 0.00 0.00 0.00 41 1014.9
20260906010044 74 165 1.0 4.0 0.00 0.00 0.00 45 1015.0
20260906005526 74 165 1.0 4.0 0.00 0.00 0.00 44 1015.0
20260906005026 75 0 0.0 0.0 0.00 0.00 0.00 44 1014.9
20260906004554 75 0 0.0 2.0 0.00 0.00 0.00 44 1015.0
20260906004028 76 0 0.0 2.0 0.00 0.00 0.00 42 1014.9
20260906003524 75 165 1.0 2.0 0.00 0.00 0.00 44 1015.0
20260906003047 76 0 0.0 2.0 0.00 0.00 0.00 44 1015.0
20260906002527 76 0 1.0 3.0 0.00 0.00 0.00 42 1015.0
20260906002026 75 165 0.0 4.0 0.00 0.00 0.00 42 1014.9
20260906001544 75 165 2.0 4.0 0.00 0.00 0.00 45 1014.9
20260906001026 75 165 1.0 4.0 0.00 0.00 0.00 45 1015.0
20260906000526 75 165 1.0 4.0 0.00 0.00 0.00 45 1015.0
20260906000040 75 165 3.0 4.0 0.00 0.00 0.00 44 1015.1
20260905235527 76 166 0.0 2.0 0.00 0.00 0.00 43 1015.1
20260905235031 76 0 0.0 0.0 0.00 0.00 0.00 42 1015.1
20260905234549 77 0 0.0 2.0 0.00 0.00 0.00 40 1015.1
20260905234032 78 0 0.0 2.0 0.00 0.00 0.00 40 1015.2
20260905233527 77 0 0.0 4.0 0.00 0.00 0.00 40 1015.2
20260905233044 77 0 0.0 4.0 0.00 0.00 0.00 41 1015.3
20260905232529 76 167 3.0 4.0 0.00 0.00 0.00 41 1015.3
20260905232028 76 168 1.0 4.0 0.00 0.00 0.00 42 1015.4
20260905231542 76 168 1.0 4.0 0.00 0.00 0.00 42 1015.5
20260905231027 76 168 1.0 4.0 0.00 0.00 0.00 41 1015.5
20260905230529 76 0 1.0 4.0 0.00 0.00 0.00 41 1015.5
20260905230053 77 168 1.0 5.0 0.00 0.00 0.00 41 1015.6
20260905225527 76 168 2.0 5.0 0.00 0.00 0.00 41 1015.6